Flag for Saudi Arabia Weather past 2 weeks in Riyadh, Saudi Arabia

Now
72 °F

Sunny.


Feels Like: 77 °F
Forecast: 56 / 76 °F
Wind: 3 mph from South

Location: Riyadh Airport

Current Time: Dec 20, 2014 at 1:54:35 PM

Latest Report: Dec 20, 2014 at 11:00 AM


Visibility: 5 mi

Pressure: 30.18 "Hg

Humidity: 38%

Dew point: 45 °F

Location of RiyadhLocation

Historic Weather in Riyadh — Graph

°F

Riyadh temperature yesterday

Maximum temperature yesterday: 73 °F (at 2:00 PM)
Minimum temperature yesterday: 54 °F (at 6:00 AM)
Average temperature yesterday: 63 °F

Past Weeks' High & Low Weather Summary

 TemperatureHumidityPressure
High79 °F (Dec 11, 12:00 PM)88% (Dec 17, 5:00 AM)30.33 "Hg (Dec 17, 5:00 AM)
Low52 °F (Dec 9, 7:00 AM)21% (Dec 15, 2:00 PM)30.07 "Hg (Dec 15, 1:00 PM)
Average65 °F47%30.19 "Hg
* Reported Dec 5 11:00 AM — Dec 20 11:00 AM, Riyadh, Weather by CustomWeather, © 2014

Note: Actual official high and low records may vary slightly from our data, if they occured in-between our weather recording intervals... More about our weather records

Advertising

Riyadh weather history for previous 24 hours

 ConditionsComfort  
Time TempWeatherWind HumidityBarometerVisibility
11:00 AM
Dec 20
72 °FSunny.3 mph38%30.18 "Hg5 mi
9:00 AM63 °FSunny.3 mph52%30.24 "Hg10 mi
7:00 AM54 °FSunny.6 mph63%30.21 "Hg10 mi
6:00 AM54 °FClear.2 mph63%30.18 "Hg10 mi
5:00 AM55 °FClear.5 mph59%30.18 "Hg10 mi
4:00 AM55 °FClear.5 mph59%30.15 "Hg10 mi
3:00 AM57 °FClear.3 mph55%30.18 "Hg10 mi
2:00 AM57 °FClear.3 mph55%30.18 "Hg10 mi
1:00 AM59 °FClear.3 mph51%30.18 "Hg10 mi
12:00 AM61 °FClear.5 mph48%30.18 "Hg10 mi
10:00 PM
Dec 19
63 °FClear.6 mph49%30.21 "Hg10 mi
9:00 PM64 °FClear.6 mph46%30.21 "Hg10 mi
8:00 PM66 °FClear.3 mph43%30.21 "Hg10 mi
7:00 PM66 °FClear.6 mph43%30.21 "Hg10 mi
5:00 PM70 °FSunny.7 mph38%30.18 "Hg10 mi
4:00 PM72 °FSunny.8 mph36%30.18 "Hg10 mi
3:00 PM73 °FSunny.7 mph36%30.18 "Hg10 mi
2:00 PM73 °FSunny.6 mph36%30.18 "Hg10 mi
1:00 PM70 °FSunny.6 mph40%30.21 "Hg10 mi
Weather by CustomWeather, © 2014

See weather overviewHow to use our weather pages